• în România
  • Lista ţărilor
  • Pe 7 zile
  • Temperatura apei
  • Hartă satelitară
  • Meteo pe hartă
  • Widget-uri
  • user-avatar
    Intrare

    Meteo pe oră la Pomorie

    Astăzi, 20 Octombrie, Vineri

    Timp Temperatura Precipitaţii Vânt Presiune Umiditate
    00:00 +18°C° 0 mm 1 m/s 763 mmHg 68%
    01:00 +18°C° 0 mm 1 m/s 763 mmHg 68%
    02:00 +16°C° 0 mm 1 m/s 762 mmHg 67%
    03:00 +16°C° 0 mm 1 m/s 763 mmHg 66%
    04:00 +16°C° 0 mm 1 m/s 763 mmHg 65%
    05:00 +16°C° 0 mm 1 m/s 763 mmHg 64%
    06:00 +18°C° 0 mm 1 m/s 763 mmHg 61%
    07:00 +18°C° 0 mm 1 m/s 763 mmHg 58%
    08:00 +19°C° 0 mm 1 m/s 763 mmHg 52%
    09:00 +22°C° 0 mm 1 m/s 763 mmHg 46%
    10:00 +24°C° 0 mm 1 m/s 763 mmHg 40%
    11:00 +26°C° 0 mm 1 m/s 763 mmHg 34%
    12:00 +27°C° 0 mm 1 m/s 763 mmHg 31%
    13:00 +28°C° 0 mm 1 m/s 763 mmHg 29%
    14:00 +29°C° 0 mm 1 m/s 762 mmHg 27%
    15:00 +27°C° 0 mm 2 m/s 762 mmHg 31%
    16:00 +26°C° 0 mm 2 m/s 762 mmHg 35%
    17:00 +24°C° 0 mm 2 m/s 762 mmHg 38%
    18:00 +23°C° 0 mm 2 m/s 763 mmHg 41%
    19:00 +21°C° 0 mm 2 m/s 763 mmHg 43%
    20:00 +20°C° 0 mm 2 m/s 763 mmHg 46%
    21:00 +20°C° 0 mm 1 m/s 763 mmHg 47%
    22:00 +20°C° 0 mm 1 m/s 763 mmHg 48%
    23:00 +19°C° 0 mm 1 m/s 763 mmHg 48%

    Mâine, 21 Octombrie, Sâmbătă

    Timp Temperatura Precipitaţii Vânt Presiune Umiditate
    00:00 +19°C° 0 mm 1 m/s 763 mmHg 49%
    01:00 +19°C° 0 mm 1 m/s 763 mmHg 50%
    02:00 +18°C° 0 mm 1 m/s 763 mmHg 51%
    03:00 +18°C° 0 mm 1 m/s 763 mmHg 52%
    04:00 +18°C° 0 mm 1 m/s 762 mmHg 52%
    05:00 +16°C° 0 mm 2 m/s 762 mmHg 53%
    06:00 +17°C° 0 mm 2 m/s 762 mmHg 52%
    07:00 +18°C° 0 mm 2 m/s 763 mmHg 51%
    08:00 +19°C° 0 mm 2 m/s 763 mmHg 49%
    09:00 +21°C° 0 mm 2 m/s 763 mmHg 43%
    10:00 +24°C° 0 mm 1 m/s 763 mmHg 37%
    11:00 +26°C° 0 mm 1 m/s 763 mmHg 31%
    12:00 +27°C° 0 mm 1 m/s 762 mmHg 29%
    13:00 +28°C° 0 mm 1 m/s 762 mmHg 28%
    14:00 +28°C° 0 mm 1 m/s 762 mmHg 26%
    15:00 +27°C° 0 mm 2 m/s 761 mmHg 29%
    16:00 +25°C° 0 mm 2 m/s 761 mmHg 33%
    17:00 +24°C° 0 mm 2 m/s 761 mmHg 37%
    18:00 +23°C° 0 mm 2 m/s 761 mmHg 39%
    19:00 +21°C° 0 mm 2 m/s 761 mmHg 41%
    20:00 +20°C° 0 mm 2 m/s 761 mmHg 43%
    21:00 +19°C° 0 mm 2 m/s 761 mmHg 44%
    22:00 +19°C° 0 mm 2 m/s 761 mmHg 45%
    23:00 +18°C° 0 mm 2 m/s 761 mmHg 46%

    Poimâine, 22 Octombrie, Duminică

    Timp Temperatura Precipitaţii Vânt Presiune Umiditate
    00:00 +18°C° 0 mm 2 m/s 761 mmHg 46%
    01:00 +18°C° 0 mm 2 m/s 760 mmHg 47%
    02:00 +18°C° 0 mm 2 m/s 760 mmHg 48%
    03:00 +17°C° 0 mm 2 m/s 760 mmHg 49%
    04:00 +17°C° 0 mm 3 m/s 760 mmHg 51%
    05:00 +17°C° 0 mm 3 m/s 760 mmHg 53%
    06:00 +17°C° 0 mm 3 m/s 760 mmHg 53%
    07:00 +18°C° 0 mm 3 m/s 760 mmHg 53%
    08:00 +18°C° 0 mm 3 m/s 760 mmHg 53%
    09:00 +20°C° 0 mm 4 m/s 761 mmHg 49%
    10:00 +21°C° 0 mm 4 m/s 761 mmHg 45%
    11:00 +23°C° 0 mm 4 m/s 761 mmHg 41%
    12:00 +23°C° 0 mm 4 m/s 761 mmHg 40%
    13:00 +23°C° 0 mm 4 m/s 761 mmHg 39%
    14:00 +25°C° 0 mm 3 m/s 760 mmHg 38%
    15:00 +22°C° 0 mm 4 m/s 760 mmHg 44%
    16:00 +21°C° 0 mm 4 m/s 760 mmHg 50%
    17:00 +20°C° 0 mm 4 m/s 761 mmHg 57%
    18:00 +19°C° 0 mm 4 m/s 761 mmHg 64%
    19:00 +17°C° 0 mm 4 m/s 761 mmHg 71%
    20:00 +16°C° 0 mm 3 m/s 761 mmHg 79%
    21:00 +16°C° 0 mm 3 m/s 761 mmHg 81%
    22:00 +16°C° 0 mm 3 m/s 761 mmHg 84%
    23:00 +14°C° 0 mm 3 m/s 761 mmHg 86%

    23 Octombrie, Luni

    Timp Temperatura Precipitaţii Vânt Presiune Umiditate
    00:00 +14°C° 0 mm 4 m/s 761 mmHg 88%
    01:00 +14°C° 0 mm 4 m/s 761 mmHg 90%
    02:00 +14°C° 0 mm 4 m/s 761 mmHg 91%
    03:00 +14°C° 0 mm 4 m/s 760 mmHg 92%
    04:00 +14°C° 0 mm 4 m/s 760 mmHg 93%
    05:00 +14°C° 0 mm 4 m/s 759 mmHg 94%
    06:00 +14°C° 0 mm 4 m/s 759 mmHg 91%
    07:00 +15°C° 0 mm 5 m/s 759 mmHg 88%
    08:00 +15°C° 0 mm 5 m/s 759 mmHg 85%
    09:00 +16°C° 0 mm 5 m/s 758 mmHg 80%
    10:00 +17°C° 0 mm 5 m/s 758 mmHg 75%
    11:00 +19°C° 0 mm 5 m/s 758 mmHg 69%
    12:00 +19°C° 0 mm 5 m/s 757 mmHg 69%
    13:00 +20°C° 0 mm 5 m/s 757 mmHg 68%
    14:00 +20°C° 0 mm 5 m/s 756 mmHg 68%
    15:00 +19°C° 0,1 mm 5 m/s 756 mmHg 72%
    16:00 +19°C° 0,1 mm 5 m/s 756 mmHg 77%
    17:00 +17°C° 0,1 mm 5 m/s 755 mmHg 81%
    18:00 +16°C° 0,1 mm 5 m/s 755 mmHg 84%
    19:00 +16°C° 0,1 mm 5 m/s 755 mmHg 87%
    20:00 +16°C° 0,1 mm 5 m/s 755 mmHg 90%
    21:00 +16°C° 0 mm 5 m/s 755 mmHg 91%
    22:00 +15°C° 0 mm 5 m/s 755 mmHg 92%
    23:00 +15°C° 0 mm 4 m/s 754 mmHg 93%

    24 Octombrie, Marţi

    Timp Temperatura Precipitaţii Vânt Presiune Umiditate
    00:00 +15°C° 0 mm 4 m/s 754 mmHg 92%
    01:00 +15°C° 0 mm 4 m/s 754 mmHg 92%
    02:00 +15°C° 0 mm 4 m/s 754 mmHg 92%
    03:00 +15°C° 0,1 mm 5 m/s 753 mmHg 93%
    04:00 +15°C° 0,1 mm 5 m/s 753 mmHg 93%
    05:00 +15°C° 0,1 mm 5 m/s 753 mmHg 93%
    06:00 +16°C° 0,3 mm 6 m/s 753 mmHg 90%
    07:00 +16°C° 0,3 mm 6 m/s 754 mmHg 88%
    08:00 +16°C° 0,3 mm 6 m/s 754 mmHg 85%
    09:00 +16°C° 0,9 mm 5 m/s 754 mmHg 84%
    10:00 +17°C° 0,9 mm 5 m/s 754 mmHg 82%
    11:00 +18°C° 0,9 mm 4 m/s 754 mmHg 81%
    12:00 +17°C° 0,4 mm 5 m/s 754 mmHg 77%
    13:00 +19°C° 0,4 mm 6 m/s 754 mmHg 72%
    14:00 +20°C° 0,4 mm 7 m/s 754 mmHg 68%
    15:00 +18°C° 0,2 mm 7 m/s 755 mmHg 73%
    16:00 +18°C° 0,2 mm 7 m/s 755 mmHg 78%
    17:00 +17°C° 0,2 mm 8 m/s 755 mmHg 83%
    18:00 +17°C° 0,4 mm 8 m/s 756 mmHg 85%
    19:00 +17°C° 0,4 mm 9 m/s 756 mmHg 87%
    20:00 +17°C° 0,4 mm 9 m/s 757 mmHg 89%
    21:00 +17°C° 0,1 mm 9 m/s 757 mmHg 88%
    22:00 +16°C° 0,1 mm 9 m/s 757 mmHg 87%
    23:00 +16°C° 0,1 mm 9 m/s 758 mmHg 86%

    25 Octombrie, Miercuri

    Timp Temperatura Precipitaţii Vânt Presiune Umiditate
    00:00 +16°C° 0,1 mm 10 m/s 758 mmHg 86%
    01:00 +16°C° 0,1 mm 10 m/s 758 mmHg 85%
    02:00 +14°C° 0,1 mm 10 m/s 758 mmHg 85%
    03:00 +14°C° 0,1 mm 10 m/s 758 mmHg 84%
    04:00 +13°C° 0,1 mm 10 m/s 759 mmHg 83%
    05:00 +13°C° 0,1 mm 10 m/s 759 mmHg 83%
    06:00 +12°C° 0,2 mm 10 m/s 759 mmHg 82%
    07:00 +12°C° 0,2 mm 11 m/s 759 mmHg 81%
    08:00 +11°C° 0,2 mm 11 m/s 760 mmHg 81%
    09:00 +9°C° 0,5 mm 11 m/s 760 mmHg 79%
    10:00 +8°C° 0,5 mm 12 m/s 761 mmHg 78%
    11:00 +8°C° 0,5 mm 12 m/s 761 mmHg 77%
    12:00 +7°C° 0,5 mm 12 m/s 761 mmHg 75%
    13:00 +7°C° 0,5 mm 12 m/s 761 mmHg 73%
    14:00 +7°C° 0,5 mm 12 m/s 761 mmHg 71%
    15:00 +7°C° 0,8 mm 12 m/s 761 mmHg 71%
    16:00 +7°C° 0,8 mm 11 m/s 762 mmHg 72%
    17:00 +7°C° 0,8 mm 11 m/s 762 mmHg 72%
    18:00 +6°C° 0,5 mm 11 m/s 763 mmHg 74%
    19:00 +6°C° 0,5 mm 11 m/s 763 mmHg 75%
    20:00 +4°C° 0,5 mm 11 m/s 764 mmHg 77%
    21:00 +4°C° 0,2 mm 11 m/s 764 mmHg 77%
    22:00 +4°C° 0,2 mm 11 m/s 764 mmHg 77%
    23:00 +3°C° 0,2 mm 11 m/s 764 mmHg 77%
    Arată mai mult